EZY82KL LOWI-EGKK

Flight info

Callsign EZY82KL
Flight time 1h 39m
Altitude 37000
Route KPT L856 RAVED Y112 HOC DCT LUL DCT RLP DCT ROTSI DCT KOTUN DCT NINAL DCT KESAX DCT KUNAV
Aircraft A320/M-SDE2E3FGHIJ1RWXYZ/LB1

Departure

Time 2026-05-07 13:39
Airport Innsbruck Airport (LOWI)

Arrival

Time 2026-05-07 15:19
Airport London Gatwick Airport (EGKK)
Time Latitude Longitude Altitude Speed Heading
2026-05-07 13:18 47.25823 11.35050 1914 ft 0 kts 172°
2026-05-07 13:27 47.25840 11.35046 1900 ft 3 kts 171°
2026-05-07 13:28 47.25862 11.35038 1905 ft 4 kts 137°
2026-05-07 13:28 47.25873 11.35007 1903 ft 4 kts 88°
2026-05-07 13:28 47.25872 11.34993 1901 ft 0 kts 81°
2026-05-07 13:31 47.25872 11.34996 1902 ft 3 kts 81°
2026-05-07 13:31 47.25883 11.35090 1902 ft 14 kts 81°
2026-05-07 13:31 47.25892 11.35170 1914 ft 10 kts 81°
2026-05-07 13:32 47.25900 11.35250 1914 ft 5 kts 81°
2026-05-07 13:32 47.25919 11.35294 1901 ft 5 kts 19°
2026-05-07 13:32 47.25951 11.35286 1906 ft 4 kts 346°
2026-05-07 13:32 47.25972 11.35279 1905 ft 2 kts 348°
2026-05-07 13:33 47.25973 11.35277 1906 ft 0 kts 332°
2026-05-07 13:33 47.25972 11.35269 1905 ft 0 kts 276°
2026-05-07 13:33 47.25970 11.35267 1904 ft 1 kts 245°
2026-05-07 13:34 47.25943 11.35281 1905 ft 10 kts 161°
2026-05-07 13:34 47.25866 11.34936 1909 ft 22 kts 261°
2026-05-07 13:34 47.25842 11.34725 1906 ft 20 kts 261°
2026-05-07 13:35 47.25822 11.34538 1914 ft 17 kts 261°
2026-05-07 13:35 47.25805 11.34372 1904 ft 15 kts 262°
2026-05-07 13:35 47.25787 11.34215 1914 ft 18 kts 261°
2026-05-07 13:35 47.25771 11.34031 1914 ft 17 kts 270°
2026-05-07 13:36 47.25797 11.33906 1903 ft 12 kts 302°
2026-05-07 13:36 47.25846 11.33803 1906 ft 14 kts 305°
2026-05-07 13:36 47.25911 11.33672 1905 ft 20 kts 306°
2026-05-07 13:36 47.25920 11.33485 1899 ft 19 kts 260°
2026-05-07 13:37 47.25895 11.33272 1909 ft 19 kts 260°
2026-05-07 13:37 47.25838 11.33131 1909 ft 15 kts 259°
2026-05-07 13:37 47.25880 11.33099 1912 ft 8 kts 58°
2026-05-07 13:37 47.25885 11.33136 1908 ft 0 kts 80°
2026-05-07 13:38 47.25901 11.33267 1909 ft 42 kts 80°
2026-05-07 13:38 47.25985 11.34057 1902 ft 112 kts 81°
2026-05-07 13:39 47.26130 11.35449 2052 ft 153 kts 82°
2026-05-07 13:39 47.26273 11.36985 2768 ft 151 kts 81°
2026-05-07 13:39 47.26428 11.38540 3296 ft 156 kts 79°
2026-05-07 13:39 47.26592 11.40135 3838 ft 158 kts 79°
2026-05-07 13:40 47.26757 11.41741 4409 ft 158 kts 81°
2026-05-07 13:40 47.26922 11.43355 4985 ft 160 kts 80°
2026-05-07 13:40 47.27184 11.44944 5509 ft 161 kts 68°
2026-05-07 13:40 47.27586 11.46499 6013 ft 163 kts 68°
2026-05-07 13:41 47.28009 11.48041 6496 ft 163 kts 65°
2026-05-07 13:41 47.28461 11.49615 6968 ft 166 kts 65°
2026-05-07 13:41 47.28913 11.51194 7398 ft 168 kts 66°
2026-05-07 13:41 47.29369 11.52792 7805 ft 171 kts 68°
2026-05-07 13:42 47.29629 11.54518 8221 ft 175 kts 86°
2026-05-07 13:42 47.29520 11.56321 8634 ft 178 kts 105°
2026-05-07 13:42 47.29042 11.58011 9067 ft 180 kts 123°
2026-05-07 13:42 47.28222 11.59448 9327 ft 191 kts 141°
2026-05-07 13:43 47.27030 11.60501 9480 ft 210 kts 161°
2026-05-07 13:43 47.25529 11.60911 9634 ft 230 kts 183°
2026-05-07 13:43 47.23899 11.60408 9796 ft 251 kts 207°
2026-05-07 13:43 47.22443 11.58846 9996 ft 270 kts 232°
2026-05-07 13:44 47.21581 11.56353 10521 ft 280 kts 258°
2026-05-07 13:44 47.21552 11.53464 11091 ft 290 kts 281°
2026-05-07 13:44 47.22040 11.50469 11274 ft 313 kts 285°
2026-05-07 13:44 47.22666 11.47296 11679 ft 328 kts 286°
2026-05-07 13:45 47.23240 11.44063 12383 ft 330 kts 276°
2026-05-07 13:45 47.23368 11.40680 13113 ft 333 kts 273°
2026-05-07 13:45 47.23600 11.37264 13797 ft 337 kts 278°
2026-05-07 13:45 47.24118 11.33880 14429 ft 341 kts 286°
2026-05-07 13:46 47.24862 11.30555 15060 ft 343 kts 288°
2026-05-07 13:46 47.25643 11.27224 15685 ft 345 kts 288°
2026-05-07 13:46 47.26449 11.23868 16323 ft 348 kts 288°
2026-05-07 13:46 47.27265 11.20504 16997 ft 349 kts 288°
2026-05-07 13:47 47.28085 11.17124 17635 ft 351 kts 288°
2026-05-07 13:47 47.28912 11.13707 18245 ft 354 kts 288°
2026-05-07 13:47 47.29742 11.10272 18762 ft 357 kts 289°
2026-05-07 13:47 47.30579 11.06798 19284 ft 360 kts 289°
2026-05-07 13:48 47.31416 11.03301 19810 ft 362 kts 289°
2026-05-07 13:48 47.32255 10.99782 20306 ft 366 kts 289°
2026-05-07 13:48 47.33091 10.96270 20805 ft 368 kts 289°
2026-05-07 13:48 47.33939 10.92690 21258 ft 371 kts 289°
2026-05-07 13:49 47.34795 10.89082 21756 ft 374 kts 289°
2026-05-07 13:49 47.35658 10.85442 22258 ft 376 kts 289°
2026-05-07 13:49 47.36524 10.81774 22753 ft 378 kts 289°
2026-05-07 13:49 47.37382 10.78140 23234 ft 380 kts 290°
2026-05-07 13:50 47.38470 10.74576 23678 ft 382 kts 300°
2026-05-07 13:50 47.40005 10.71357 24081 ft 385 kts 310°
2026-05-07 13:50 47.41939 10.68611 24464 ft 388 kts 321°
2026-05-07 13:50 47.44162 10.66298 24832 ft 392 kts 324°
2026-05-07 13:51 47.46419 10.64005 25171 ft 395 kts 324°
2026-05-07 13:51 47.48658 10.61714 25551 ft 396 kts 324°
2026-05-07 13:51 47.50935 10.59374 25888 ft 400 kts 323°
2026-05-07 13:51 47.53223 10.57018 26290 ft 402 kts 324°
2026-05-07 13:52 47.55524 10.54650 26674 ft 403 kts 324°
2026-05-07 13:52 47.57835 10.52271 27024 ft 405 kts 324°
2026-05-07 13:52 47.60151 10.49885 27382 ft 406 kts 324°
2026-05-07 13:52 47.62478 10.47491 27778 ft 407 kts 324°
2026-05-07 13:53 47.64829 10.45072 28088 ft 410 kts 324°
2026-05-07 13:53 47.67148 10.42682 28423 ft 412 kts 324°
2026-05-07 13:53 47.69465 10.40134 28728 ft 414 kts 317°
2026-05-07 13:53 47.71423 10.36992 29018 ft 416 kts 306°
2026-05-07 13:54 47.72922 10.33295 29333 ft 419 kts 295°
2026-05-07 13:54 47.73905 10.29197 29633 ft 421 kts 284°
2026-05-07 13:54 47.74311 10.24937 29979 ft 423 kts 272°
2026-05-07 13:54 47.74254 10.20528 30244 ft 425 kts 269°
2026-05-07 13:55 47.74151 10.16120 30498 ft 427 kts 269°
2026-05-07 13:55 47.74048 10.11688 30757 ft 429 kts 269°
2026-05-07 13:55 47.73942 10.07239 30975 ft 432 kts 268°
2026-05-07 13:55 47.73835 10.02836 31240 ft 432 kts 268°
2026-05-07 13:56 47.73727 9.98370 31593 ft 431 kts 268°
2026-05-07 13:56 47.73619 9.93930 31966 ft 429 kts 268°
2026-05-07 13:56 47.73510 9.89501 32327 ft 428 kts 268°
2026-05-07 13:56 47.73398 9.85081 32691 ft 427 kts 268°
2026-05-07 13:57 47.73288 9.80677 33053 ft 425 kts 268°
2026-05-07 13:57 47.73172 9.76291 33415 ft 424 kts 268°
2026-05-07 13:57 47.73054 9.71928 33784 ft 422 kts 268°
2026-05-07 13:57 47.72914 9.67558 34132 ft 421 kts 264°
2026-05-07 13:58 47.72471 9.63313 34403 ft 420 kts 260°
2026-05-07 13:58 47.71942 9.59039 34663 ft 420 kts 260°
2026-05-07 13:58 47.71420 9.54785 34912 ft 420 kts 260°
2026-05-07 13:58 47.70897 9.50509 35146 ft 420 kts 260°
2026-05-07 13:59 47.70373 9.46238 35376 ft 419 kts 260°
2026-05-07 13:59 47.69852 9.41980 35599 ft 419 kts 259°
2026-05-07 13:59 47.69328 9.37713 35813 ft 419 kts 259°
2026-05-07 13:59 47.68801 9.33439 36036 ft 419 kts 259°
2026-05-07 14:00 47.68275 9.29242 36242 ft 419 kts 259°
2026-05-07 14:00 47.67736 9.24986 36457 ft 419 kts 259°
2026-05-07 14:00 47.67197 9.20734 36646 ft 419 kts 259°
2026-05-07 14:00 47.66658 9.16480 36831 ft 419 kts 259°
2026-05-07 14:01 47.66120 9.12233 36989 ft 419 kts 259°
2026-05-07 14:01 47.65046 9.03745 37037 ft 417 kts 259°
2026-05-07 14:02 47.63960 8.95303 37039 ft 416 kts 259°
2026-05-07 14:02 47.63057 8.88303 37040 ft 416 kts 259°
2026-05-07 14:03 47.61786 8.78491 37033 ft 416 kts 259°
2026-05-07 14:03 47.60879 8.71486 37031 ft 416 kts 259°
2026-05-07 14:04 47.59776 8.63060 37034 ft 416 kts 259°
2026-05-07 14:04 47.58668 8.54678 37030 ft 416 kts 259°
2026-05-07 14:05 47.57550 8.46255 37028 ft 416 kts 259°
2026-05-07 14:05 47.56438 8.37879 37035 ft 416 kts 258°
2026-05-07 14:06 47.55307 8.29460 37027 ft 416 kts 258°
2026-05-07 14:06 47.54172 8.21024 37029 ft 417 kts 258°
2026-05-07 14:07 47.53035 8.12615 37029 ft 417 kts 258°
2026-05-07 14:07 47.51888 8.04248 37014 ft 416 kts 258°
2026-05-07 14:08 47.50734 7.95850 37026 ft 416 kts 258°
2026-05-07 14:08 47.49579 7.87479 37035 ft 415 kts 258°
2026-05-07 14:09 47.48418 7.79105 37035 ft 415 kts 258°
2026-05-07 14:09 47.47271 7.70785 37035 ft 414 kts 262°
2026-05-07 14:10 47.47389 7.62289 37035 ft 416 kts 281°
2026-05-07 14:10 47.48769 7.54021 37032 ft 416 kts 282°
2026-05-07 14:11 47.50155 7.45705 37020 ft 416 kts 282°
2026-05-07 14:11 47.51525 7.37385 37022 ft 416 kts 282°
2026-05-07 14:12 47.52894 7.29101 37023 ft 416 kts 282°
2026-05-07 14:12 47.54267 7.20799 37031 ft 416 kts 282°
2026-05-07 14:13 47.55641 7.12443 37027 ft 416 kts 282°
2026-05-07 14:13 47.56990 7.04150 37035 ft 416 kts 282°
2026-05-07 14:14 47.58339 6.95805 37035 ft 416 kts 282°
2026-05-07 14:14 47.59688 6.87435 37051 ft 416 kts 282°
2026-05-07 14:15 47.61016 6.79140 37035 ft 416 kts 282°
2026-05-07 14:15 47.62349 6.70774 37032 ft 417 kts 282°
2026-05-07 14:16 47.63683 6.62386 37038 ft 417 kts 282°
2026-05-07 14:16 47.64997 6.54051 37059 ft 417 kts 282°
2026-05-07 14:17 47.66315 6.45669 37058 ft 417 kts 282°
2026-05-07 14:17 47.67624 6.37320 37059 ft 417 kts 282°
2026-05-07 14:18 47.68945 6.28916 37061 ft 417 kts 283°
2026-05-07 14:18 47.70574 6.20631 37059 ft 418 kts 286°
2026-05-07 14:19 47.72405 6.12477 37060 ft 418 kts 287°
2026-05-07 14:19 47.74224 6.04260 37060 ft 418 kts 286°
2026-05-07 14:20 47.75959 5.96053 37055 ft 418 kts 285°
2026-05-07 14:20 47.77682 5.87774 37060 ft 418 kts 285°
2026-05-07 14:21 47.79388 5.79571 37058 ft 418 kts 285°
2026-05-07 14:21 47.81108 5.71292 37056 ft 418 kts 285°
2026-05-07 14:22 47.82830 5.63015 37054 ft 418 kts 285°
2026-05-07 14:22 47.84535 5.54777 37059 ft 418 kts 285°
2026-05-07 14:23 47.86241 5.46495 37067 ft 418 kts 285°
2026-05-07 14:23 47.87931 5.38186 37069 ft 418 kts 285°
2026-05-07 14:24 47.89609 5.29947 37066 ft 418 kts 287°
2026-05-07 14:24 47.92330 5.22255 37063 ft 423 kts 306°
2026-05-07 14:25 47.96238 5.15719 37059 ft 424 kts 309°
2026-05-07 14:25 48.00210 5.09166 37066 ft 425 kts 309°
2026-05-07 14:26 48.04148 5.02642 37068 ft 425 kts 309°
2026-05-07 14:26 48.08115 4.96054 37055 ft 425 kts 309°
2026-05-07 14:27 48.12083 4.89471 37077 ft 425 kts 309°
2026-05-07 14:27 48.16021 4.82914 37065 ft 426 kts 309°
2026-05-07 14:28 48.19988 4.76303 37074 ft 426 kts 309°
2026-05-07 14:28 48.23951 4.69676 37072 ft 426 kts 309°
2026-05-07 14:29 48.27891 4.63062 37067 ft 426 kts 309°
2026-05-07 14:29 48.31844 4.56400 37070 ft 426 kts 309°
2026-05-07 14:30 48.35770 4.49766 37082 ft 426 kts 309°
2026-05-07 14:30 48.39722 4.43083 37075 ft 427 kts 309°
2026-05-07 14:31 48.43676 4.36393 37080 ft 427 kts 309°
2026-05-07 14:31 48.47603 4.29713 37084 ft 427 kts 309°
2026-05-07 14:32 48.51548 4.23003 37083 ft 427 kts 309°
2026-05-07 14:32 48.55467 4.16311 37079 ft 427 kts 309°
2026-05-07 14:33 48.59395 4.09578 37089 ft 427 kts 309°
2026-05-07 14:33 48.63325 4.02825 37083 ft 427 kts 309°
2026-05-07 14:34 48.67263 3.96051 37081 ft 428 kts 309°
2026-05-07 14:34 48.71176 3.89310 37077 ft 428 kts 309°
2026-05-07 14:35 48.75200 3.82699 37074 ft 429 kts 312°
2026-05-07 14:35 48.79511 3.76393 37074 ft 430 kts 314°
2026-05-07 14:36 48.83822 3.70182 37070 ft 429 kts 313°
2026-05-07 14:36 48.88105 3.63845 37067 ft 429 kts 313°
2026-05-07 14:37 48.92350 3.57451 37067 ft 429 kts 313°
2026-05-07 14:37 48.98721 3.47850 37066 ft 429 kts 313°
2026-05-07 14:38 49.02969 3.41445 37072 ft 429 kts 313°
2026-05-07 14:38 49.07212 3.35036 37075 ft 430 kts 313°
2026-05-07 14:39 49.11456 3.28598 37066 ft 430 kts 313°
2026-05-07 14:39 49.15707 3.22149 37068 ft 430 kts 313°
2026-05-07 14:40 49.19946 3.15700 37063 ft 430 kts 313°
2026-05-07 14:40 49.24156 3.09264 37067 ft 430 kts 312°
2026-05-07 14:41 49.28393 3.02778 37080 ft 430 kts 312°
2026-05-07 14:41 49.32615 2.96298 37073 ft 430 kts 312°
2026-05-07 14:42 49.36827 2.89823 37066 ft 430 kts 312°
2026-05-07 14:42 49.41059 2.83298 37064 ft 430 kts 312°
2026-05-07 14:43 49.45280 2.76767 37066 ft 430 kts 312°
2026-05-07 14:43 49.49505 2.70217 37074 ft 430 kts 312°
2026-05-07 14:44 49.53697 2.63704 37072 ft 430 kts 312°
2026-05-07 14:44 49.57904 2.57143 37067 ft 430 kts 312°
2026-05-07 14:45 49.62052 2.50522 37070 ft 430 kts 309°
2026-05-07 14:45 49.65949 2.43513 37068 ft 429 kts 307°
2026-05-07 14:46 49.69737 2.36376 37070 ft 429 kts 307°
2026-05-07 14:46 49.73561 2.29295 37080 ft 429 kts 308°
2026-05-07 14:47 49.77408 2.22281 37088 ft 429 kts 308°
2026-05-07 14:47 49.81280 2.15206 36842 ft 430 kts 308°
2026-05-07 14:48 49.83210 2.11671 36475 ft 428 kts 308°
2026-05-07 14:48 49.85129 2.08148 35932 ft 425 kts 307°
2026-05-07 14:48 49.87022 2.04662 35449 ft 422 kts 307°
2026-05-07 14:48 49.88905 2.01187 34954 ft 419 kts 307°
2026-05-07 14:49 49.90770 1.97741 34445 ft 417 kts 307°
2026-05-07 14:49 49.92609 1.94334 33927 ft 414 kts 307°
2026-05-07 14:49 49.94450 1.90926 33406 ft 410 kts 307°
2026-05-07 14:49 49.96275 1.87545 32922 ft 406 kts 307°
2026-05-07 14:50 49.98084 1.84186 32440 ft 402 kts 307°
2026-05-07 14:50 49.99269 1.81982 32122 ft 399 kts 307°
2026-05-07 14:50 50.01621 1.77610 31497 ft 394 kts 307°
2026-05-07 14:50 50.03373 1.74349 31032 ft 391 kts 307°
2026-05-07 14:51 50.04545 1.72162 30724 ft 388 kts 307°
2026-05-07 14:51 50.06244 1.68985 30296 ft 385 kts 308°
2026-05-07 14:51 50.08108 1.66013 29812 ft 383 kts 316°
2026-05-07 14:51 50.10113 1.63314 29386 ft 378 kts 316°
2026-05-07 14:52 50.12086 1.60646 28961 ft 372 kts 316°
2026-05-07 14:52 50.14034 1.58006 28569 ft 367 kts 316°
2026-05-07 14:52 50.15950 1.55401 28174 ft 362 kts 316°
2026-05-07 14:52 50.17848 1.52811 27773 ft 357 kts 316°
2026-05-07 14:53 50.19700 1.50291 27378 ft 354 kts 316°
2026-05-07 14:53 50.21543 1.47777 26968 ft 350 kts 316°
2026-05-07 14:53 50.23365 1.45288 26585 ft 346 kts 316°
2026-05-07 14:53 50.25173 1.42817 26198 ft 343 kts 316°
2026-05-07 14:54 50.26985 1.40336 25795 ft 340 kts 316°
2026-05-07 14:54 50.28758 1.37904 25394 ft 338 kts 316°
2026-05-07 14:54 50.30520 1.35490 24997 ft 336 kts 316°
2026-05-07 14:54 50.32280 1.33082 24578 ft 335 kts 316°
2026-05-07 14:55 50.34006 1.30711 24163 ft 333 kts 316°
2026-05-07 14:55 50.35749 1.28313 23753 ft 332 kts 316°
2026-05-07 14:55 50.37482 1.25926 23294 ft 331 kts 316°
2026-05-07 14:55 50.39206 1.23548 22877 ft 328 kts 316°
2026-05-07 14:56 50.40916 1.21198 22476 ft 325 kts 316°
2026-05-07 14:56 50.42614 1.18855 22081 ft 323 kts 316°
2026-05-07 14:56 50.44277 1.16558 21692 ft 321 kts 316°
2026-05-07 14:56 50.45951 1.14243 21306 ft 319 kts 316°
2026-05-07 14:57 50.47617 1.11933 20921 ft 318 kts 316°
2026-05-07 14:57 50.49267 1.09644 20538 ft 317 kts 316°
2026-05-07 14:57 50.50919 1.07354 20157 ft 316 kts 316°
2026-05-07 14:57 50.52469 1.04922 19789 ft 313 kts 310°
2026-05-07 14:58 50.53949 1.02425 19422 ft 312 kts 310°
2026-05-07 14:58 50.55419 0.99951 19054 ft 312 kts 311°
2026-05-07 14:58 50.56902 0.97457 18687 ft 312 kts 311°
2026-05-07 14:58 50.58383 0.94966 18312 ft 311 kts 311°
2026-05-07 14:59 50.59859 0.92473 17919 ft 311 kts 311°
2026-05-07 14:59 50.61325 0.89987 17554 ft 309 kts 311°
2026-05-07 14:59 50.62787 0.87508 17193 ft 308 kts 311°
2026-05-07 14:59 50.64244 0.85038 16830 ft 307 kts 311°
2026-05-07 15:00 50.65695 0.82576 16488 ft 306 kts 311°
2026-05-07 15:00 50.67144 0.80117 16142 ft 305 kts 311°
2026-05-07 15:00 50.68568 0.77587 15708 ft 311 kts 308°
2026-05-07 15:00 50.69936 0.74968 15231 ft 314 kts 307°
2026-05-07 15:01 50.71309 0.72245 14748 ft 318 kts 307°
2026-05-07 15:01 50.72681 0.69492 14416 ft 316 kts 307°
2026-05-07 15:01 50.74017 0.66816 14131 ft 313 kts 307°
2026-05-07 15:01 50.75372 0.64119 13775 ft 313 kts 307°
2026-05-07 15:02 50.76736 0.61424 13394 ft 311 kts 307°
2026-05-07 15:02 50.78088 0.58758 13034 ft 310 kts 307°
2026-05-07 15:02 50.79434 0.56101 12682 ft 308 kts 307°
2026-05-07 15:02 50.80770 0.53465 12326 ft 306 kts 307°
2026-05-07 15:03 50.82082 0.50877 11986 ft 305 kts 307°
2026-05-07 15:03 50.83421 0.48235 11640 ft 303 kts 307°
2026-05-07 15:03 50.84734 0.45644 11158 ft 299 kts 307°
2026-05-07 15:03 50.86036 0.43074 10510 ft 298 kts 307°
2026-05-07 15:04 50.87323 0.40535 9871 ft 296 kts 307°
2026-05-07 15:04 50.88601 0.38007 9212 ft 292 kts 307°
2026-05-07 15:04 50.89859 0.35516 8672 ft 285 kts 307°
2026-05-07 15:04 50.91087 0.33079 8256 ft 283 kts 307°
2026-05-07 15:05 50.92310 0.30643 7938 ft 282 kts 307°
2026-05-07 15:05 50.93532 0.28205 7617 ft 280 kts 307°
2026-05-07 15:05 50.94742 0.25798 7317 ft 278 kts 307°
2026-05-07 15:05 50.95939 0.23396 7014 ft 276 kts 307°
2026-05-07 15:06 50.96887 0.21469 6769 ft 275 kts 307°
2026-05-07 15:06 50.98056 0.19084 6463 ft 273 kts 308°
2026-05-07 15:06 50.99215 0.16716 6159 ft 271 kts 308°
2026-05-07 15:06 51.00373 0.14356 5846 ft 270 kts 307°
2026-05-07 15:07 51.01323 0.11847 5537 ft 268 kts 292°
2026-05-07 15:07 51.01819 0.09011 5232 ft 267 kts 277°
2026-05-07 15:07 51.01952 0.06075 4951 ft 266 kts 274°
2026-05-07 15:07 51.02071 0.03147 4809 ft 266 kts 274°
2026-05-07 15:08 51.02198 0.00218 4663 ft 265 kts 274°
2026-05-07 15:08 51.02329 -0.02736 4562 ft 265 kts 274°
2026-05-07 15:08 51.02461 -0.05659 4400 ft 264 kts 274°
2026-05-07 15:08 51.02587 -0.08548 4251 ft 264 kts 274°
2026-05-07 15:09 51.02709 -0.11459 4096 ft 263 kts 274°
2026-05-07 15:09 51.02830 -0.14359 3941 ft 263 kts 274°
2026-05-07 15:09 51.02954 -0.17251 3786 ft 262 kts 274°
2026-05-07 15:09 51.03076 -0.20149 3386 ft 263 kts 273°
2026-05-07 15:10 51.03196 -0.23014 3277 ft 259 kts 273°
2026-05-07 15:10 51.03311 -0.25876 3214 ft 260 kts 273°
2026-05-07 15:10 51.03424 -0.28747 3108 ft 260 kts 272°
2026-05-07 15:10 51.03537 -0.31612 3000 ft 258 kts 272°
2026-05-07 15:11 51.03650 -0.34472 3005 ft 259 kts 272°
2026-05-07 15:11 51.03763 -0.37299 3003 ft 259 kts 273°
2026-05-07 15:11 51.03877 -0.40158 3004 ft 259 kts 272°
2026-05-07 15:11 51.03991 -0.43009 3000 ft 259 kts 272°
2026-05-07 15:12 51.04104 -0.45868 3001 ft 259 kts 273°
2026-05-07 15:12 51.04214 -0.48664 2993 ft 245 kts 272°
2026-05-07 15:12 51.04321 -0.51268 2993 ft 228 kts 275°
2026-05-07 15:12 51.04829 -0.53580 2993 ft 223 kts 309°
2026-05-07 15:13 51.06092 -0.54964 2991 ft 224 kts 342°
2026-05-07 15:13 51.07633 -0.55206 2990 ft 225 kts 10°
2026-05-07 15:13 51.09074 -0.54277 2993 ft 225 kts 38°
2026-05-07 15:13 51.10066 -0.52394 2994 ft 223 kts 66°
2026-05-07 15:14 51.10486 -0.50052 2997 ft 223 kts 79°
2026-05-07 15:14 51.10814 -0.47697 2996 ft 212 kts 79°
2026-05-07 15:14 51.11127 -0.45462 2999 ft 201 kts 79°
2026-05-07 15:14 51.11418 -0.43395 3002 ft 183 kts 78°
2026-05-07 15:15 51.11691 -0.41456 2847 ft 176 kts 79°
2026-05-07 15:15 51.11954 -0.39578 2646 ft 173 kts 79°
2026-05-07 15:15 51.12215 -0.37715 2435 ft 171 kts 79°
2026-05-07 15:15 51.12470 -0.35892 2200 ft 169 kts 82°
2026-05-07 15:16 51.12725 -0.34069 1976 ft 167 kts 80°
2026-05-07 15:16 51.12971 -0.32310 1753 ft 154 kts 81°
2026-05-07 15:16 51.13198 -0.30682 1542 ft 149 kts 81°
2026-05-07 15:16 51.13419 -0.29095 1339 ft 145 kts 81°
2026-05-07 15:17 51.13637 -0.27526 1139 ft 145 kts 82°
2026-05-07 15:17 51.13846 -0.26019 940 ft 142 kts 82°
2026-05-07 15:17 51.14071 -0.24435 773 ft 140 kts 80°
2026-05-07 15:17 51.14277 -0.22929 550 ft 136 kts 81°
2026-05-07 15:18 51.14482 -0.21431 324 ft 135 kts 80°
2026-05-07 15:18 51.14639 -0.20278 217 ft 130 kts 82°
2026-05-07 15:18 51.14807 -0.19083 205 ft 97 kts 78°
2026-05-07 15:18 51.14914 -0.18312 213 ft 53 kts 77°
2026-05-07 15:19 51.15000 -0.17901 208 ft 29 kts 53°
2026-05-07 15:19 51.15098 -0.17761 209 ft 14 kts 12°
2026-05-07 15:19 51.15187 -0.17772 214 ft 12 kts 353°
2026-05-07 15:19 51.15258 -0.17735 210 ft 11 kts 62°
2026-05-07 15:20 51.15278 -0.17612 206 ft 14 kts 77°
2026-05-07 15:20 51.15300 -0.17444 207 ft 15 kts 78°
2026-05-07 15:20 51.15375 -0.17377 204 ft 14 kts 350°
2026-05-07 15:20 51.15463 -0.17408 212 ft 12 kts 347°
2026-05-07 15:21 51.15550 -0.17439 208 ft 16 kts 347°
2026-05-07 15:21 51.15653 -0.17475 211 ft 14 kts 348°
2026-05-07 15:21 51.15727 -0.17500 210 ft 7 kts 348°
2026-05-07 15:21 51.15734 -0.17502 207 ft 1 kts 348°
2026-05-07 15:22 51.15735 -0.17502 209 ft 0 kts 348°
2026-05-07 15:22 51.15741 -0.17504 207 ft 2 kts 348°
2026-05-07 15:22 51.15751 -0.17523 212 ft 3 kts 297°
2026-05-07 15:22 51.15754 -0.17555 204 ft 3 kts 270°
2026-05-07 15:23 51.15748 -0.17601 214 ft 6 kts 258°
2026-05-07 15:23 51.15738 -0.17679 209 ft 10 kts 257°
2026-05-07 15:23 51.15716 -0.17834 212 ft 17 kts 257°
2026-05-07 15:23 51.15698 -0.17969 206 ft 7 kts 258°
2026-05-07 15:24 51.15684 -0.18074 204 ft 11 kts 257°
2026-05-07 15:24 51.15710 -0.18162 206 ft 11 kts 339°
2026-05-07 15:24 51.15763 -0.18099 205 ft 11 kts 81°
2026-05-07 15:24 51.15734 -0.18042 209 ft 7 kts 159°
2026-05-07 15:25 51.15699 -0.17963 208 ft 12 kts 88°
2026-05-07 15:25 51.15717 -0.17824 212 ft 13 kts 78°
2026-05-07 15:25 51.15728 -0.17727 213 ft 3 kts 94°
2026-05-07 15:25 51.15705 -0.17709 204 ft 5 kts 175°
2026-05-07 15:26 51.15674 -0.17699 212 ft 4 kts 167°
2026-05-07 15:26 51.15657 -0.17693 210 ft 0 kts 167°